www.pogodaiklimat.ru

Погода и климат >> Архив погоды >> Доминиканская Республика >> Las Americas


ПОГОДА в Las Americas

  • Прогноз погоды в Las Americas
  • Монитор погоды в Las Americas
  • Климат города

АРХИВ ПОГОДЫ в Las Americas

Время (UTC), дата Ветер
(напр.,м/с)
 
Видим.   Явления Облачность Т
(С)
Тd
(С)
f
(%)
Тe
(С)
Тes
(С)
Комфортность P
(гПа)
Po
(гПа)
Тmin
(С)
Tmax
(С)
R
(мм)
R24
(мм)
S
(см)
18 10.10 ЮВ 4 6000 м гроза, ливневой дождь 10/8 420 м
[Cb cap As op]
+27.0 +22.5 76 +35 +36 очень
душно
1012.3 1012.0 1
21 10.10 Ю 2 6000 м гроза, ливневой дождь 10/9 360 м
[Cb cap As op]
+24.0 +23.2 95 +32 +32 очень
душно
1011.3 1011.0 24
03 11.10 С 2 16 км {гроза} 8/6 420 м
[Cb cap As op Cs]
+24.2 +23.2 94 +32 +32 очень
душно
1013.9 1014.0 0.0
06 11.10 С 3 16 км {гроза} 8/5 420 м
[Cb cap As op Cs]
+23.8 +22.9 95 +32 +32 очень
душно
1012.5 1013.0 +22.5 +30.0
09 11.10 С 2 16 км 9/5 420 м
[Cb cap Ac As Cs]
+23.0 +22.3 96 +31 +31 очень
душно
1011.5 1012.0
12 11.10 С 2 16 км 9/3 480 м
[Cu Sc Ac trans Cs]
+23.8 +22.9 95 +32 +32 очень
душно
1013.1 1013.0 +22.7 +30.0
15 11.10 СВ 3 16 км 9/4 600 м
[Cu med, cong Ac trans Cs]
+28.2 +23.9 78 +39 +43 очень
душно
1013.2 1013.0
18 11.10 ЮЗ 4 16 км 9/6 660 м
[Cu med, cong Ac trans Cs]
+29.8 +24.1 72 +42 +44 опасность
перегрева
1011.4 1011.0 +22.7 +31.0
00 12.10 СВ 3 16 км 8/6 540 м
[Cu med, cong Ac trans]
+25.6 +23.1 86 +34 +34 очень
душно
1012.3 1012.0 +22.5 +31.0
03 12.10 С 3 16 км 9/6 540 м
[Cu med, cong Ac trans]
+24.8 +23.6 93 +34 +34 очень
душно
1013.1 1013.0
06 12.10 СВ 2 16 км 8/6 540 м
[Cu med, cong Ac trans]
+24.0 +23.0 94 +32 +32 очень
душно
1012.1 1012.0 +22.5 +31.0
09 12.10 СВ 2 16 км 8/6 480 м
[Cb cap Ac As]
+23.2 +22.4 95 +32 +32 очень
душно
1011.5 1012.0
12 12.10 СВ 2 16 км 9/6 480 м
[Cb cap Ac trans Cs]
+24.4 +22.7 90 +32 +32 очень
душно
1013.0 1013.0 +22.6 +31.0
15 12.10 ЮВ 2 8000 м осадки на расстоянии 9/8 540 м
[Cb cap Ac trans Cs]
+29.0 +24.8 78 +41 +44 опасность
перегрева
1013.8 1014.0
18 12.10 ЮЗ 3 16 км осадки на расстоянии 9/8 480 м
[Cb cap Ac trans Cs]
+28.9 +24.3 76 +40 +42 очень
душно
1011.6 1012.0 +22.6 +30.0
21 12.10 Ю 3 16 км 9/8 480 м
[Cb cap Ac trans Cs]
+27.2 +24.1 83 +38 +38 очень
душно
1011.2 1011.0
00 13.10 С 2 16 км 8/5 480 м
[Cb cap Cs]
+25.0 +23.6 92 +34 +34 очень
душно
1011.3 1011.0 +22.6 +30.0
03 13.10 ЮЗ 2 8000 м осадки на расстоянии {дождь} 8/5 420 м
[Cb cap As op Cs]
+24.0 +23.0 94 +32 +32 очень
душно
1013.4 1013.0 0.3
06 13.10 СВ 2 16 км {дождь} 9/8 480 м
[Cb cap As op Cs]
+23.5 +22.8 96 +31 +31 очень
душно
1012.6 1013.0 +22.6 +30.0
09 13.10 СВ 2 16 км 8/5 480 м
[Cb cap Cs]
+23.4 +22.3 94 +32 +32 очень
душно
1011.5 1012.0
12 13.10 В 2 16 км 9/4 480 м
[Cb cap Ac trans Cs]
+23.0 +22.1 95 +31 +32 очень
душно
1012.7 1013.0 +23.0 +30.0
15 13.10 Ю 3 8000 м осадки на расстоянии 9/8 360 м
[Cb cap As op Cs]
+25.3 +23.5 90 +34 +36 очень
душно
1015.2 1015.0
18 13.10 Ю 3 8000 м осадки на расстоянии {дождь} 9/8 420 м
[Cb cap As op Cs]
+25.3 +23.5 90 +34 +36 очень
душно
1013.4 1013.0 +23.0 +27.5 2
21 13.10 нст 2 8000 м осадки на расстоянии 9/6 480 м
[Cb cap As op Cs]
+25.8 +23.7 88 +35 +36 очень
душно
1013.0 1013.0
00 14.10 Ю 2 16 км {дождь} 5/4 480 м
[Cu med, cong Cs]
+25.2 +23.1 88 +34 +34 очень
душно
1013.5 1014.0 +22.6 +27.5 2
03 14.10 Ю 2 16 км 4/4 480 м
[Cu med, cong]
+24.5 +22.9 91 +32 +32 очень
душно
1014.6 1015.0
06 14.10 СВ 2 16 км 3/3 480 м
[Cu med, cong]
+23.6 +22.6 94 +31 +31 очень
душно
1013.8 1014.0 +22.6 +27.5
09 14.10 штиль 0 16 км 6/6 480 м
[Sc]
+22.8 +22.0 95 +31 +31 очень
душно
1012.2 1012.0
12 14.10 В 2 16 км в посл. час туман 8/6 420 м
[Cb cap Ac trans]
+22.6 +22.3 98 +30 +31 очень
душно
1014.2 1014.0 +22.2 +27.5
18 14.10 ЮВ 3 8000 м слабый дождь 10/9 480 м
[Cb cap Ac As]
+27.0 +25.2 90 +39 +40 очень
душно
1014.6 1015.0 +22.2 +30.0 3
21 14.10 ЮВ 3 8000 м слабый дождь 10/9 480 м
[Cb cap Ac As]
+27.0 +25.2 90 +39 +39 очень
душно
1014.6 1015.0 +22.2 +30.0 3
00 15.10 СЗ 3 7000 м дождь {гроза} 9/8 360 м
[Cb cap Ac As Cs]
+23.5 +23.0 97 +31 +31 очень
душно
1014.9 1015.0 +22.2 +30.3 41
03 15.10 СВ 2 7000 м дождь 9/8 360 м
[Cb cap Ac As Cs]
+22.8 +22.5 98 +31 +31 очень
душно
1016.4 1016.0 3
06 15.10 штиль 0 16 км {дождь} 9/6 420 м
[Cb cap Ac trans Cs]
+22.0 +21.5 97 +29 +29 очень
душно
1015.0 1015.0 +22.0 +30.3 1
09 15.10 С 2 16 км 3/3 480 м
[Cu med, cong]
+22.0 +21.5 97 +29 +29 очень
душно
1013.8 1014.0
12 15.10 СВ 3 16 км 4/3 540 м
[Cu med, cong Ac As]
+24.0 +22.6 92 +31 +32 очень
душно
1015.8 1016.0 +21.5 +30.3
15 15.10 СВ 3 16 км 5/5 540 м
[Cb cap Ac As Ci ing]
+29.0 +24.6 77 +41 +47 опасность
перегрева
1016.2 1016.0
18 15.10 В 4 16 км 5/5 600 м
[Cu med, cong Cs]
+31.2 +23.3 63 +42 +47 опасность
перегрева
1013.5 1014.0 +21.5 +32.5
21 15.10 СВ 5 8000 м гроза, ливневой дождь 8/8 480 м
[Cb cap Ac As Cs]
+26.4 +24.6 90 +37 +38 очень
душно
1013.4 1013.0 0.0
00 16.10 СВ 2 8000 м гроза, ливневой дождь 8/4 480 м
[Cb cap Ac trans Cs]
+24.5 +23.8 96 +33 +33 очень
душно
1014.5 1015.0 +21.5 +32.5
03 16.10 С 2 16 км {гроза} 8/5 480 м
[Cb cap Ac trans Cs]
+24.2 +23.6 96 +33 +33 очень
душно
1016.0 1016.0 0.2
06 16.10 С 2 16 км {гроза} 6/4 480 м
[Cb cap Ac trans Cs]
+23.7 +23.2 97 +32 +32 очень
душно
1014.8 1015.0 +21.5 +32.5
09 16.10 СВ 2 16 км зарница {гроза} 6/5 480 м
[Cb cap Ac trans Cs]
+23.2 +22.4 95 +32 +32 очень
душно
1014.1 1014.0
12 16.10 СВ 3 16 км {гроза} 8/4 480 м
[Cb cap Ci fib]
+25.4 +23.6 90 +35 +35 очень
душно
1015.7 1016.0 +22.8 +32.5
15 16.10 СВ 4 16 км 8/4 540 м
[Cb cap Cs]
+29.4 +23.8 72 +40 +45 очень
душно
1016.4 1016.0
18 16.10 В 4 16 км {дождь} 8/8 600 м
[Cb cap Cs]
+30.5 +24.1 69 +42 +44 опасность
перегрева
1013.5 1014.0 +22.8 +32.0 0.0
21 16.10 СВ 4 16 км 8/5 540 м
[Cb cap Cs]
+29.2 +23.1 70 +39 +40 очень
душно
1012.6 1013.0
00 17.10 СВ 2 16 км 4/4 540 м
[Cu med, cong]
+25.8 +23.9 89 +35 +35 очень
душно
1013.0 1013.0 +32.0
03 17.10 С 3 16 км зарница 5/5 480 м
[Cb cap Cs]
+24.8 +23.2 91 +33 +33 очень
душно
1015.1 1015.0
06 17.10 С 2 16 км {гроза} 3/3 540 м
[Cu med, cong]
+24.5 +23.3 93 +33 +33 очень
душно
1014.1 1014.0 +22.8 +32.0
09 17.10 С 2 16 км 3/3 480 м
[Cu med, cong]
+23.8 +23.1 96 +32 +32 очень
душно
1012.6 1013.0
12 17.10 С 3 16 км 3/3 480 м
[Cu med, cong]
+25.1 +23.7 92 +34 +35 очень
душно
1013.7 1014.0 +23.3 +32.0

 

Местоположение метеостанции Las Americas (Доминиканская Республика): широта 18.43 долгота -69.66 высота над уровнем моря 18 м.

В архиве по умолчанию представлена погода в Las Americas за последнюю неделю. Архивные данные за месяц целиком и за предыдущие месяцы, начиная с января 2011 года, Вы можете получить, выбрав интересующий диапазон дат из раскрывающегося списка и нажав кнопку "Ввод!".


*Определитесь, кто Вы:
робот инопланетянин человек

Внимание! Время в таблицах - всемирное. Для получения местного времени необходимо прибавить поправку, которая в Las Americas равна -4 ч.

Смотрите также архив погоды в соседних городах и на ближайших метеорологических станциях:

Погода в Santo Domingo (Доминиканская Республика) (23 км)
Погода в Sabana De La Mar (Доминиканская Республика) (75 км)
Погода в La Romana Int Airport (Доминиканская Республика) (78 км)
Погода в Punta Cana (Доминиканская Республика) (138 км)
Погода в Barahona (Доминиканская Республика) (154 км)
Погода в Santiago (Доминиканская Республика) (158 км)
Погода в Puerto Plata (Доминиканская Республика) (174 км)
Погода в Charlotte Amalie St. Thomas (Виргинские Острова) (496 км)
Погода в Punta de Maisi (Куба) (513 км)
Погода в Queen Beatrix Airport (Аруба) (661 км)

Пояснения к столбцам:

Ветер - указаны скорость ветра в м/с - средняя за 10 мин, порывы в срок и между сроками (в фигурных скобках) и направление, откуда дует ветер: С - северный, СВ - северо-восточный, В - восточный, ЮВ - юго-восточный, Ю - южный, ЮЗ - юго-западный, З - западный, СЗ - северо-западный.
Видимость - горизонтальная дальность видимости в метрах или километрах. При видимости от 1 до 10 км при отсутствии осадков обычно наблюдается дымка, при ухудшении видимости до 1 км и менее - туман. В сухую погоду видимость может ухудшаться дымом, пылью или мглою.
Явления - указаны атмосферные явления, наблюдавшиеся в срок или в последний час перед сроком; фигурными скобками обозначены явления, наблюдавшиеся между сроками (за 1-3 часа до срока); квадратными скобками обозначены град или гололедные отложения с указанием их диаметра в мм.
Облачность - указаны через наклонную черту общая и нижняя облачность в баллах и высота нижней границы облаков в метрах; квадратными скобками обозначены формы облаков: Ci - перистые, Cs - перисто-слоистые, Cc - перисто-кучевые, Ac - высококучевые, As - высокослоистые, Sc - слоисто-кучевые, Ns - слоисто-дождевые, Cu - кучевые, Cb - кучево-дождевые. Подробнее классификацию облаков см. в Атласе облаков (PDF).
T - Температура воздуха - температура, измеренная на высоте 2 м над землей.
Td - Температура точки росы - температура, при понижении до которой содержащийся в воздухе водяной пар достигнет насыщения.
f - Относительная влажность воздуха - влажноcть воздуха, измеренная на высоте 2 м над землей.
Te - Эффективная температура - температура, которую ощущает одетый по сезону человек в тени. Характеристика душности погоды. При расчете учитывается влияние влажности воздуха и скорости ветра на теплоощущения человека.
Tes - Эффективная температура на солнце - температура, которую ощущает человек, с поправкой на солнечный нагрев. Характеристика знойности погоды. Зависит от высоты солнца над горизонтом, облачности и скорости ветра. Ночью, в пасмурную погоду, а также при ветре 12 м/с и более поправка равна нулю.
P - Атмосферное давление - приведенное к уровню моря атмосферное давление.
Po - Атмосферное давление - измеренное на уровне метеостанции атмосферное давление.
Tmin - Минимальная температура - минимум температуры воздуха на высоте 2 м над землей.
Tmax - Максимальная температура - максимум температуры воздуха на высоте 2 м над землей.
R - Количество осадков - Количество выпавших осадков за период времени, мм. При наведении курсора мыши на число - период времени, за который выпало указанное количество осадков.
R24 - Количество осадков - Количество выпавших осадков за 24 часа, мм.
S - Снежный покров - Высота снежного покрова, см. При наведении курсора мыши на число - состояние снежного покрова и степень покрытия местности в баллах.